This demonstration page uses our WeatherBlox Daily Observations layout. Learn more.

39.01783, -85.05884

Hourly Observations for August 31, 2020

Temp ( °F °C ) Dew Point ( °F °C ) Humidity (%) Winds ( mph kmh ) Pressure ( in mb ) Visibility ( mi km ) Precip ( " mm )
12:52 am 00:52 Cloudy 68 20 56 13.3 65 65 E 8 13 29.85 1011 10 16.0934 0 0
1:52 am 01:52 Mostly Cloudy 69 20.6 56 13.3 63 63 E 7 11 29.84 1010 10 16.0934 0 0
2:52 am 02:52 Mostly Cloudy 69 20.6 56 13.3 63 63 E 7 11 29.83 1010 10 16.0934 0 0
3:52 am 03:52 Cloudy 69 20.6 56 13.3 63 63 E 9 15 29.83 1010 10 16.0934 0 0
4:52 am 04:52 Cloudy 67 19.4 59 15 76 76 SSE 5 7 29.83 1010 10 16.0934 0 0
5:52 am 05:52 Cloudy with Light Rain 65 18.3 61 16.1 87 87 ESE 6 9 29.84 1011 10 16.0934 0.001 0.001
5:57 am 05:57 Cloudy with Light Rain 65 18.3 61 16.1 87 87 ESE 7 11 29.85 1011 10 16.0934 0.001 0.001
6:18 am 06:18 Cloudy 65 18.3 61 16.1 87 87 SE 8 13 29.85 1011 10 16.0934 0.001 0.001
6:52 am 06:52 Cloudy 65 18.3 61 16.1 87 87 E 7 11 29.84 1011 10 16.0934 0.001 0.001
7:29 am 07:29 Cloudy 65 18.3 61 16.1 87 87 ESE 8 13 29.85 1011 10 16.0934 0 0
7:52 am 07:52 Cloudy 65 18.3 61 16.1 87 87 E 7 11 29.85 1011 10 16.0934 0 0
8:52 am 08:52 Cloudy 66 18.9 62 16.7 87 87 SE 9 15 29.87 1011 10 16.0934 0 0
8:58 am 08:58 Cloudy 66 18.9 62 16.7 87 87 SE 7 11 29.87 1012 10 16.0934 0 0
9:27 am 09:27 Cloudy 67 19.4 63 17.2 87 87 SE 6 9 29.87 1011 10 16.0934 0 0
9:52 am 09:52 Cloudy 67 19.4 63 17.2 87 87 ESE 8 13 29.86 1011 10 16.0934 0 0
10:52 am 10:52 Cloudy 69 20.6 63 17.2 81 81 SE 6 9 29.86 1011 10 16.0934 0 0
11:52 am 11:52 Cloudy 71 21.7 65 18.3 81 81 ESE 5 7 29.84 1010 10 16.0934 0 0
12:52 pm 12:52 Cloudy 72 22.2 66 18.9 82 82 SSE 6 9 29.84 1011 10 16.0934 0 0
1:52 pm 13:52 Cloudy 74 23.3 66 18.9 76 76 VRB 3 6 29.84 1011 10 16.0934 0 0
2:16 pm 14:16 Cloudy 75 23.9 67 19.4 76 76 SSE 3 6 29.84 1010 10 16.0934 0 0
2:52 pm 14:52 Mostly Cloudy 78 25.6 68 20 71 71 SSE 3 6 29.83 1010 10 16.0934 0 0
3:21 pm 15:21 Cloudy 77 25 67 19.4 71 71 Calm 29.81 1010 10 16.0934 0 0
3:52 pm 15:52 Mostly Cloudy 78 25.6 67 19.4 69 69 Calm 29.8 1009 10 16.0934 0 0
4:37 pm 16:37 Mostly Cloudy 78 25.6 68 20 71 71 SSE 6 9 29.78 1008 10 16.0934 0 0
4:52 pm 16:52 Mostly Cloudy 80 26.7 67 19.4 64 64 Calm 29.78 1009 9 14.48406 0 0
5:46 pm 17:46 Cloudy 79 26 68 20 70 70 SSW 6 9 29.8 1009 10 16.0934 0 0
5:52 pm 17:52 Cloudy 78 25.6 68 20 71 71 S 7 11 29.81 1009 10 16.0934 0 0
6:08 pm 18:08 Cloudy 78 25.6 69 20.6 74 74 S 7 11 29.8 1009 10 16.0934 0 0
6:52 pm 18:52 Cloudy 77 25 68 20 74 74 SSW 8 13 29.84 1010 9 14.48406 0 0
7:52 pm 19:52 Cloudy 75 23.9 69 20.6 82 82 S 8 13 29.85 1011 10 16.0934 0 0
8:52 pm 20:52 Cloudy 73 22.8 68 20 84 84 S 3 6 29.84 1011 10 16.0934 0 0
9:52 pm 21:52 Mostly Cloudy 75 23.9 68 20 79 79 E 3 6 29.84 1011 10 16.0934 0 0
10:52 pm 22:52 Mostly Clear 71 21.7 68 20 90 90 S 9 15 29.85 1011 10 16.0934 0 0
11:52 pm 23:52 Mostly Cloudy 71 21.7 68 20 90 90 Calm 29.88 1012 10 16.0934 0 0

Powered by AerisWeather